Location: *
(47.6569°N, 7.4256°E)
Time: 22:35:41
(UTC+00:00)

Meteor 1-12 Rocket - Pass Details

Date: 14 December 2019
Orbit: 854 x 927 km, 81.2° (Epoch: 22 January)

Event Time Altitude Azimuth Distance (km) Brightness Sun altitude
Rises 17:27:50 0° 352° (N) 3,538 7.4 -17.4°
Reaches altitude 10° 17:30:25 10° 357° (N) 2,581 6.6 -17.8°
Maximum altitude 17:36:07 50° 73° (ENE) 1,121 4.4 -18.8°
Drops below altitude 10° 17:41:40 10° 148° (SSE) 2,517 6.5 -19.7°
Sets 17:44:09 0° 154° (SSE) 3,441 7.2 -20.1°
